N5CSC Weather Reports


Display with metric or nautical units.
time (UTC)temp
F
wind
direction
speed
MPH
gust
MPH
rain 1hr
in
rain 24hr
in
rain mn
in
humidity
%
barometer
mb
20260902151526 85 246 0.0 5.0 0.00 0.00 0.00 69 1013.7
20260902150018 84 176 0.0 5.0 0.00 0.00 0.00 73 1013.6
20260902144516 83 197 0.0 3.0 0.00 0.00 0.00 75 1013.8
20260902143013 82 199 0.0 2.0 0.00 0.00 0.00 77 1013.9
20260902141513 81 189 0.0 2.0 0.00 0.00 0.00 77 1013.9
20260902140015 81 205 0.0 5.0 0.00 0.00 0.00 78 1013.9
20260902134522 80 175 0.0 2.0 0.00 0.00 0.00 78 1013.9
20260902133011 79 175 0.0 0.0 0.00 0.00 0.00 79 1013.8
20260902131509 78 175 0.0 0.0 0.00 0.00 0.00 79 1013.8
20260902130007 77 175 0.0 0.0 0.00 0.00 0.00 78 1013.5
20260902124504 77 175 0.0 0.0 0.00 0.00 0.00 78 1013.4
20260902123003 77 175 0.0 0.0 0.00 0.00 0.00 77 1013.1
20260902121505 77 175 0.0 0.0 0.00 0.00 0.00 77 1012.9
20260902114600 78 175 0.0 0.0 0.00 0.00 0.00 77 1012.9
20260902113105 78 175 0.0 0.0 0.00 0.00 0.00 77 1012.8
20260902111600 78 175 0.0 0.0 0.00 0.00 0.00 77 1012.8
20260902104618 78 175 0.0 0.0 0.00 0.00 0.00 76 1012.6
20260902103055 78 173 0.0 0.0 0.00 0.00 0.00 75 1012.6
20260902101555 78 174 0.0 0.0 0.00 0.00 0.00 73 1012.6
20260902100110 78 174 0.0 0.0 0.00 0.00 0.00 71 1012.7
20260902094652 78 174 0.0 0.0 0.00 0.00 0.00 70 1012.7
20260902093058 78 174 0.0 0.0 0.00 0.00 0.00 70 1012.9
20260902091547 79 174 0.0 0.0 0.00 0.00 0.00 69 1012.9
20260902090046 79 174 0.0 0.0 0.00 0.00 0.00 69 1012.9
20260902084544 79 174 0.0 0.0 0.00 0.00 0.00 68 1013.0
20260902083056 79 174 0.0 0.0 0.00 0.00 0.00 67 1013.1
20260902081605 80 174 0.0 0.0 0.00 0.00 0.00 67 1013.1
20260902080053 80 174 0.0 0.0 0.00 0.00 0.00 67 1013.0
20260902074543 81 174 0.0 0.0 0.00 0.00 0.00 65 1013.1
20260902073037 81 174 0.0 0.0 0.00 0.00 0.00 65 1013.1
20260902071538 81 174 0.0 0.0 0.00 0.00 0.00 64 1013.1
20260902070037 81 174 0.0 0.0 0.00 0.00 0.00 63 1013.1
20260902064531 82 174 0.0 0.0 0.00 0.00 0.00 61 1013.0
20260902063034 82 174 0.0 0.0 0.00 0.00 0.00 61 1013.1
20260902061526 83 175 0.0 0.0 0.00 0.00 0.00 60 1012.9
20260902060030 83 179 0.0 0.0 0.00 0.00 0.00 59 1012.8
20260902054523 83 190 0.0 0.0 0.00 0.00 0.00 58 1012.7
20260902053019 84 190 0.0 0.0 0.00 0.00 0.00 58 1012.6
20260902051515 84 182 0.0 2.0 0.00 0.00 0.00 56 1012.5
20260902050019 84 174 0.0 4.0 0.00 0.00 0.00 55 1012.5
20260902044532 85 157 0.0 0.0 0.00 0.00 0.00 54 1012.6
20260902043012 86 150 0.0 1.0 0.00 0.00 0.00 53 1012.5
20260902041515 86 141 0.0 0.0 0.00 0.00 0.00 52 1012.3
20260902040012 86 136 0.0 2.0 0.00 0.00 0.00 52 1012.2
20260902034511 87 140 0.0 3.0 0.00 0.00 0.00 52 1012.2
20260902033010 87 147 0.0 5.0 0.00 0.00 0.00 51 1012.1
20260902031517 88 116 1.0 7.0 0.00 0.00 0.00 50 1011.9
20260902030009 88 111 2.0 5.0 0.00 0.00 0.00 48 1011.7
20260902024508 89 102 4.0 9.0 0.00 0.00 0.00 46 1011.4
20260902023007 90 109 0.0 4.0 0.00 0.00 0.00 44 1011.1
20260902021510 91 105 0.0 5.0 0.00 0.00 0.00 42 1010.8
20260902020010 92 109 0.0 3.0 0.00 0.00 0.00 41 1010.6
20260902014519 92 80 0.0 4.0 0.00 0.00 0.00 40 1010.2
20260902013005 93 57 0.0 3.0 0.00 0.00 0.00 38 1010.2
20260902011506 94 86 0.0 0.0 0.00 0.00 0.00 35 1009.8
20260902010005 95 86 0.0 0.0 0.00 0.00 0.00 33 1009.7
20260902004504 96 86 0.0 0.0 0.00 0.00 0.00 32 1009.8
20260902003005 97 83 0.0 1.0 0.00 0.00 0.00 31 1009.8
20260902001503 98 79 0.0 1.0 0.00 0.00 0.00 30 1009.8
20260902000003 99 83 0.0 2.0 0.00 0.00 0.00 29 1009.8
20260901234504 99 156 0.0 0.0 0.00 0.00 0.00 29 1009.8
20260901233002 99 196 0.0 0.0 0.00 0.00 0.00 28 1009.9
20260901231600 100 149 0.0 3.0 0.00 0.00 0.00 28 1009.8
20260901230003 100 109 0.0 2.0 0.00 0.00 0.00 28 1009.8
20260901224558 100 180 1.0 4.0 0.00 0.00 0.00 28 1009.9
20260901223105 100 132 0.0 2.0 0.00 0.00 0.00 28 1009.8
20260901221623 101 155 0.0 5.0 0.00 0.00 0.00 28 1009.9
20260901220100 99 175 0.0 3.0 0.00 0.00 0.00 30 1009.9
20260901214555 98 113 0.0 0.0 0.00 0.00 0.00 30 1010.0
20260901213102 100 110 0.0 5.0 0.00 0.00 0.00 28 1010.2
20260901211550 101 42 0.0 2.0 0.00 0.00 0.00 29 1010.3
20260901210047 101 53 1.0 5.0 0.00 0.00 0.00 28 1010.6
20260901204547 101 289 0.0 2.0 0.00 0.00 0.00 29 1010.9
20260901203053 100 66 0.0 7.0 0.00 0.00 0.00 29 1011.0
20260901201545 100 195 0.0 6.0 0.00 0.00 0.00 30 1011.3
20260901200034 99 153 2.0 10.0 0.00 0.00 0.00 30 1011.4
20260901194530 99 117 0.0 6.0 0.00 0.00 0.00 30 1011.8
20260901193026 99 200 0.0 5.0 0.00 0.00 0.00 32 1012.0
20260901191523 98 205 0.0 7.0 0.00 0.00 0.00 34 1012.1
20260901190020 97 336 0.0 3.0 0.00 0.00 0.00 35 1012.3
20260901184516 96 109 0.0 7.0 0.00 0.00 0.00 36 1012.5
20260901183013 96 42 0.0 2.0 0.00 0.00 0.00 38 1012.9
20260901181518 96 196 0.0 2.0 0.00 0.00 0.00 38 1013.1
20260901180011 96 146 0.0 4.0 0.00 0.00 0.00 38 1013.4
20260901174510 96 162 1.0 5.0 0.00 0.00 0.00 40 1013.5
20260901173005 94 20 0.0 3.0 0.00 0.00 0.00 43 1013.8
20260901171502 94 176 1.0 6.0 0.00 0.00 0.00 45 1013.9
20260901170101 94 174 0.0 6.0 0.00 0.00 0.00 44 1014.1
20260901164555 91 214 0.0 2.0 0.00 0.00 0.00 49 1014.3
20260901163059 91 275 0.0 2.0 0.00 0.00 0.00 50 1014.3
20260901161551 90 127 0.0 3.0 0.00 0.00 0.00 52 1014.5
20260901160057 88 190 0.0 4.0 0.00 0.00 0.00 57 1014.5
20260901154543 87 19 0.0 0.0 0.00 0.00 0.00 62 1014.5
20260901153041 86 164 0.0 0.0 0.00 0.00 0.00 63 1014.5